Regional Weather Roundup
Issued by NWS Spokane, WA

Home | Current Version | Previous Version | Text Only | Print | Product List | Glossary On
Versions: 1 2 3 4 5 6 7 8 9 10 11 12 13 14 15 16 17 18 19 20 21 22 23 24 25 26 27 28 29 30 31 32 33 34 35 36 37 38 39 40 41 42 43 44 45 46 47 48 49 50
000
NZUS01 KOTX 011410
RWROTX
EASTERN WASHINGTON/NORTHERN IDAHO ROUNDUP
NATIONAL WEATHER SERVICE, SPOKANE WA
700 AM PDT WED OCT 01 2014

Note: "fair" indicated few or no clouds below 12,000 feet with no
significant weather and/or obstructions to visibility.

...NORTHEAST WASHINGTON AND NORTHERN IDAHO PANHANDLE...

CITY           SKY/WX    TMP DP  RH WIND       PRES   REMARKS
SPOKANE INTL   PTCLDY    36  34  92 S10       30.09R
SPOKANE DOWNTO CLEAR     39  37  92 CALM      30.11R
COEUR D ALENE  PTCLDY    43  37  81 S9        30.09S
DEER PARK      CLEAR     30  29  96 CALM      30.10R
SANDPOINT      CLOUDY    34  34 100 W5        30.08R FOG     WCI  30

...SOUTHEAST WASHINGTON AND SOUTHERN IDAHO PANHANDLE...

CITY           SKY/WX    TMP DP  RH WIND       PRES   REMARKS
WALLA WALLA    CLEAR     50  42  74 S8        30.17R
PULLMAN/MOSCOW CLEAR     41  37  86 CALM      30.14R
LEWISTON       CLEAR     44  41  89 SE3       30.14R
LOWELL           N/A     48  46  93 CALM      30.17R

...COLUMBIA BASIN...

CITY           SKY/WX    TMP DP  RH WIND       PRES   REMARKS
EPHRATA        CLEAR     53  35  50 W13       30.11R
MOSES LAKE     CLEAR     43  38  82 CALM      30.12R
TRI CITIES     CLEAR     39  39 100 CALM      30.15R
HERMISTON      CLEAR     48  40  73 SW5       30.16R
PENDLETON      CLEAR     46  39  76 CALM      30.16R

...EAST SLOPES CASCADES...

CITY           SKY/WX    TMP DP  RH WIND       PRES   REMARKS
THE DALLES     CLEAR     49  44  83 S5        30.18R
YAKIMA         CLEAR     40  35  83 W3        30.15R
ELLENSBURG     CLEAR     46  38  73 W3        30.13R
WENATCHEE      CLEAR     49  36  61 W5        30.12R HAZE
OMAK           CLEAR     35  32  88 NW3       30.11S

...SOUTHERN BRITISH COLUMBIA...

CITY           SKY/WX    TMP DP  RH WIND       PRES   REMARKS
PENTICTON      PTCLDY    37  36  93 VRB2      30.10R
CASTLEGAR      PTCLDY    39  37  93 SE5       30.10R
CRANBROOK      PTCLDY    36  32  87 S8        30.02R

...WESTERN MONTANA...

CITY           SKY/WX    TMP DP  RH WIND       PRES   REMARKS
MISSOULA       MOCLDY    42  40  92 CALM      30.08R

...NEIGHBORING CITIES...

CITY           SKY/WX    TMP DP  RH WIND       PRES   REMARKS
SEATTLE        CLOUDY    53  50  89 S3        30.22R
CALGARY        CLEAR     34  32  93 CALM      29.88S



USA.gov is the U.S. government's official web portal to all federal, state and local government web resources and services.